Showing default

SJ-7, 28737

Orbit data source: Space-Track

SJ-7, 28737 is a payload satellite owned by CASC (CN) in SSO that was launched on Tue, 05 Jul 2005 UTC via a CHANG ZHENG 2D launch vehicle from the Jiuquan Satellite Launch Center, China (JSC). Payload-class satellites include a variety of spacecraft equipped with specific instruments for various scientific and technological missions. These include communications satellites like Starlink; space stations such as the ISS; scientific satellites like the Hubble; Earth observation satellites from companies like Planet Labs, Umbra, and HawkEye 360; GPS; miniature CubeSats for education and research; and military/defense satellites.

Loading next visibility...
Identifier
28737, 2005-024A
Orbit
SSO
Country
Flag of CNCN / PRC
Related business
Manufacturer
SAST
Mission
Operational Civil Technology
Bus & Motor
FY-1?, Unknown motor
Mass
~1,000 kg wet, ~1,000 kg dry
Launch date (UTC)
2005-07-05 (20 years ago)
Launch vehicle
CHANG ZHENG 2D
Launch site
Jiuquan Satellite Launch Center, China (JSC)
Object type
Payload
Rocket body
Debris
Shape & HBR
Box + 1 Pan, 1.0 m
Radar Cross Section
6.000 m², Large (>1 m²)

Expand to show TLE details & history
Last TLE update: 6 hours ago

TLE from 6 hours ago
0 SJ-7
1 28737U 05024A   25291.26512610  .00012729  00000-0  64737-3 0  9991
2 28737  97.7545 310.3154 0018456 145.4162 214.8275 15.16838804111297
Epoch: 2025-10-18T06:21Z
TLE epoch observation values (Epoch: 2025-10-18T06:21:46.895Z)
Latitude
0.00002°
Longitude
-172.12862°
Altitude
528.931 km
Speed
7.593 km/s
True Right ascension
20h 41m 15s
True Declination
0° 00' 00"
Sunlit
Object was in daylight at epoch
Visualization orbit readout
Latitude
Unknown
Longitude
Unknown
Altitude
Unknown
Speed
Unknown
Apparent Right ascension
Unknown
Apparent Declination
Unknown
Sunlit
N/A
Visualization observer readout
Local Sidereal Time
07:09:10
Azimuth
Unknown
Elevation
Unknown
Doppler factor
Unknown
Orbital elements
Apogee altitude
525.104 km
Perigee altitude
499.67 km
Semi-major axis
6,890.524 km
Eccentricity
0.00185
Inclination
97.7545°
RAAN
310.3154°
Arg. of periapsis
145.4162°
True anomaly
214.70694°
Mean anomaly
214.8275°
Eccentric anomaly
214.7672°
Mean motion
3.79459 °/min
Orbital period
94.87 mins
BSTAR
0.00064737
Loading maneuver chart data...
Computing Atmospheric mass density...
Loading historical data...
Loading historical data...
Loading historical data...
Loading historical data...
Loading historical data...
Loading historical data...
Loading historical data...

Documentation

Showing up to 5 results
|